JQ1YUX-13 Tokyo Ota-ku JP current weather conditions

sailwx.info

Wind from 223

Air temperature 28.9° C
Dewpoint 26.5° C

Last reported at 2014-Jul-25 12:50 UTC.
Time now 2014-Jul-25 13:45 UTC

Location: N 35°35' E 139°40'.
View on Google Maps.

See reports from other nearby stations

  
Tides and Currents Weather Stations Pressure Air Temp Water Temp Dewpoint Dewpoint Depression Visibility Wind Speed Wind Dir Waves Ship Positions
date/time (UTC)wind fromknots sea level pressurealtimeterstation pressurevisibilityair tempwater tempwave heightnotes
2014-Jul-25 12:50 223 28.9
2014-Jul-25 12:21 213 29.4
2014-Jul-25 12:20 213 29.4
2014-Jul-25 11:51 213 0 29.4
2014-Jul-25 11:50 213 29.4
2014-Jul-25 11:21 199 30.0
2014-Jul-25 11:20 199 30.0
2014-Jul-25 10:51 226 30.0
2014-Jul-25 10:50 226 30.0
2014-Jul-25 10:21 222 30.6
2014-Jul-25 10:20 209 0 gusting 5 30.6
2014-Jul-25 10:08 245 30.6
2014-Jul-25 09:38 184 32.2
2014-Jul-25 09:08 171 32.8
2014-Jul-25 08:38 232 33.3
2014-Jul-25 08:08 206 33.9
2014-Jul-25 07:38 205 34.4
2014-Jul-25 07:08 168 35.6
2014-Jul-25 06:38 228 35.6
2014-Jul-25 06:08 219 36.7
2014-Jul-25 05:38 304 36.7
2014-Jul-25 05:08 211 36.7
2014-Jul-25 04:38 032 0 gusting 2 36.7
2014-Jul-25 04:08 259 35.6
2014-Jul-25 03:38 207 35.6
2014-Jul-25 03:08 195 35.0
2014-Jul-25 02:38 196 35.0
2014-Jul-25 02:08 201 35.0
2014-Jul-25 01:38 182 33.9
2014-Jul-25 01:08 201 33.3
2014-Jul-25 00:38 145 32.8
2014-Jul-25 00:08 153 31.1
2014-Jul-24 23:38 348 30.6
2014-Jul-24 23:08 295 28.9
2014-Jul-24 22:38 288 27.8
2014-Jul-24 22:08 295 26.7
2014-Jul-24 21:38 329 26.1
2014-Jul-24 21:08 329 25.6
2014-Jul-24 20:38 330 25.0
2014-Jul-24 20:08 330 25.0
2014-Jul-24 19:38 330 25.0
2014-Jul-24 19:08 330 25.0
2014-Jul-24 18:38 331 25.0
2014-Jul-24 18:08 330 25.0
2014-Jul-24 17:38 330 25.0
2014-Jul-24 17:08 330 25.0
2014-Jul-24 16:38 330 25.0
2014-Jul-24 16:08 330 25.0
2014-Jul-24 15:38 323 25.0
2014-Jul-24 15:08 345 25.0
2014-Jul-24 14:38 345 25.0
2014-Jul-24 14:08 318 25.0
2014-Jul-24 13:38 282 25.6
2014-Jul-24 13:08 281 25.6
2014-Jul-24 12:38 275 25.6
2014-Jul-24 12:08 275 25.6
2014-Jul-24 11:38 288 26.1
2014-Jul-24 11:08 024 4 gusting 7 26.1
2014-Jul-24 10:38 056 0 26.1
2014-Jul-24 10:08 242 0 gusting 1 29.4
2014-Jul-24 09:38 324 31.1
2014-Jul-24 09:08 342 32.2
2014-Jul-24 08:38 329 33.9
2014-Jul-24 08:08 306 34.4
2014-Jul-24 07:38 194 35.0
2014-Jul-24 07:08 182 35.6
2014-Jul-24 06:38 190 36.1
2014-Jul-24 06:08 191 35.6
2014-Jul-24 04:38 191 33.9
2014-Jul-24 04:08 191 34.4
2014-Jul-24 03:38 199 33.9
2014-Jul-24 03:08 025 34.4
2014-Jul-24 02:38 207 32.8
2014-Jul-24 02:08 207 33.3
2014-Jul-24 01:38 207 31.7
2014-Jul-24 01:08 208 31.7
2014-Jul-24 00:38 208 30.6
2014-Jul-24 00:08 178 30.0
2014-Jul-23 23:38 178 29.4
2014-Jul-23 23:08 178 28.9
2014-Jul-23 22:38 178 28.3
2014-Jul-23 22:08 178 27.8
2014-Jul-23 21:38 178 27.2
2014-Jul-23 21:08 178 27.2
2014-Jul-23 20:38 178 26.7
2014-Jul-23 20:08 178 26.7
2014-Jul-23 19:38 178 26.7
2014-Jul-23 19:08 178 26.7
2014-Jul-23 18:38 178 26.7
2014-Jul-23 18:08 178 26.7
2014-Jul-23 17:38 178 26.7
2014-Jul-23 17:08 178 27.2
2014-Jul-23 16:38 178 27.2
2014-Jul-23 16:08 178 27.8
2014-Jul-23 15:38 178 27.8
2014-Jul-23 15:08 178 27.8
2014-Jul-23 14:38 171 28.3
2014-Jul-23 14:08 211 28.3
2014-Jul-23 13:38 194 28.3
2014-Jul-23 13:08 180 28.3